Location: Bemmer
(51.5498°N, 5.6249°E)
Time: 12:46:49
(UTC+00:00)

Cosmos 2322 Rocket - Pass Details

Date: 03 March 2021
Orbit: 832 x 852 km, 71.0° (Epoch: 16 April)

Event Time Altitude Azimuth Distance (km) Brightness Sun altitude
Rises 19:07:50 0° 219° (SW) 3,367 5.7 -17.2°
Reaches altitude 10° 19:10:17 10° 222° (SW) 2,437 5.0 -17.6°
Maximum altitude 19:15:50 64° 304° (NW) 921 2.6 -18.4°
Drops below altitude 10° 19:21:26 10° 26° (NNE) 2,460 4.5 -19.3°
Sets 19:23:55 0° 30° (NNE) 3,400 5.2 -19.7°
